Location: CAO
(44.5093°N, 80.3921°W)
Time: 02:20:04
(UTC-04:00)

ACS3 Solar Sail - Visible Passes

Search period start: 05 October 2024 00:00
Search period end: 15 October 2024 00:00
Orbit: 963 x 1036 km, 97.4° (Epoch: 04 October)

Date Brightness Start Highest point End Pass type
(mag) Time Alt. Az. Time Alt. Az. Time Alt. Az.
05 Oct 3.3 19:33:00 10° E 19:36:54 17° ENE 19:40:46 10° NNE visible
05 Oct 1.8 21:17:44 44° SSE 21:19:58 88° ENE 21:26:21 10° NNW visible
05 Oct 4.2 23:02:55 14° WSW 23:04:41 16° W 23:08:22 10° NW visible
06 Oct 2.7 20:05:04 18° ESE 20:08:27 28° ENE 20:13:42 10° N visible
06 Oct 2.4 21:50:15 42° SSW 21:52:03 54° W 21:58:16 10° NNW visible
07 Oct 2.1 20:37:35 31° ESE 20:40:11 48° ENE 20:46:13 10° N visible
07 Oct 3.3 22:22:46 28° WSW 22:24:18 31° W 22:29:51 10° NNW visible
08 Oct 3.4 19:25:34 10° E 19:29:06 16° ENE 19:32:36 10° NNE visible
08 Oct 1.7 21:10:06 47° SSE 21:12:05 81° ENE 21:18:26 10° N visible
08 Oct 4.1 22:55:17 16° WSW 22:56:42 17° W 23:00:45 10° NW visible
09 Oct 2.8 19:57:26 18° ESE 20:00:38 26° ENE 20:05:41 10° N visible
09 Oct 2.3 21:42:36 47° SSW 21:44:08 60° W 21:50:24 10° NNW visible
10 Oct 2.2 20:29:56 31° ESE 20:32:20 44° ENE 20:38:14 10° N visible
10 Oct 3.2 22:15:07 31° WSW 22:16:21 34° W 22:22:02 10° NNW visible
11 Oct 3.4 19:18:10 10° E 19:21:17 14° NE 19:24:23 10° NNE visible
11 Oct 1.7 21:02:27 50° SE 21:04:12 75° ENE 21:10:30 10° N visible
11 Oct 3.9 22:47:38 18° W 22:48:44 19° W 22:53:05 10° NW visible
12 Oct 2.9 19:49:47 17° E 19:52:48 24° ENE 19:57:37 10° NNE visible
12 Oct 2.1 21:34:58 54° SSW 21:36:13 65° W 21:42:29 10° NNW visible
13 Oct 2.3 20:22:17 31° ESE 20:24:28 40° ENE 20:30:14 10° N visible
13 Oct 3.0 22:07:28 35° WSW 22:08:24 37° W 22:14:11 10° NNW visible
14 Oct 3.5 19:10:52 10° E 19:13:29 13° NE 19:16:04 10° NNE visible
14 Oct 1.8 20:54:48 52° SE 20:56:18 68° ENE 21:02:32 10° N visible
14 Oct 3.8 22:39:59 20° W 22:40:45 21° W 22:45:22 10° NW visible
